Volver al catálogo

STARLINK-4304

ActivoComunicacionesVLEO
NORAD 53414·PAYLOAD·🇺🇸 United States

Lanzado Aug 10, 2022 desde Cape Canaveral Space Force Station

Loading…

Próximos Pases (próximas 24 horas)

TLE

ActualizadoSource: CelesTrak SupGP

Época: Sep 15, 2026, 02:51 UTC

1 53414C 22097AC  26258.11923611  .00050019  00000+0  14778-2 0  2585
2 53414  53.1576 333.0016 0001123  93.8324 294.0520 15.34366118    19

Sigue STARLINK-4304 en tiempo real con AllMySat

Download on the App Store